Location: Crumtown
(34.8393°N, 88.7334°W)
Time: 05:41:37
(UTC+00:00)

Daily predictions for brighter satellites

Satellite Brightness Start Highest point End
(mag) Time Altitude Azimuth Time Altitude Azimuth Time Altitude Azimuth
Orbus 7S 4.3 01:31:32 10° SW 01:33:44 22° SSE 01:37:01 10° ESE
SL-4 R/B 1.5 01:33:20 10° NW 01:36:09 57° WSW 01:38:42 10° SSE
Cosmos 1833 Rocket 2.7 01:30:54 10° NNW 01:36:33 82° ENE 01:42:09 10° SSE
STARLINK-1082 3.8 01:33:23 10° NW 01:37:31 66° NE 01:41:37 10° SE
BREEZE-M DEB 1.6 01:36:00 10° SW 01:38:17 55° SE 01:40:35 10° ENE
STARLINK-1444 1.6 01:36:16 10° SW 01:38:18 66° SE 01:40:18 10° NE
STARLINK-1452 1.6 01:36:53 10° SW 01:38:55 68° SE 01:40:55 10° NE
STARLINK-1450 1.5 01:38:10 10° SW 01:40:09 73° SE 01:42:06 10° NE
FREGAT/IRIS 2.2 01:37:34 10° SSE 01:40:12 84° E 01:42:52 10° N
STARLINK-1436 (VISORSAT) 1.5 01:38:13 10° SW 01:40:13 73° SE 01:42:11 10° NE
STARLINK-1392 1.5 01:38:18 10° SW 01:40:16 73° SE 01:42:14 10° NE
STARLINK-1398 1.6 01:38:15 10° SW 01:40:16 73° SE 01:42:16 10° NE
STARLINK-1414 1.6 01:38:16 10° SW 01:40:16 73° SE 01:42:16 10° NE
STARLINK-1399 1.5 01:38:18 10° SW 01:40:17 73° SE 01:42:14 10° NE
STARLINK-1415 1.5 01:38:18 10° SW 01:40:18 73° SE 01:42:15 10° NE
STARLINK-1416 1.6 01:38:17 10° SW 01:40:18 73° SE 01:42:17 10° NE
STARLINK-1394 1.5 01:38:19 10° SW 01:40:18 73° SE 01:42:15 10° NE
STARLINK-1395 1.5 01:38:19 10° SW 01:40:19 73° SE 01:42:16 10° NE
STARLINK-1393 1.5 01:38:19 10° SW 01:40:19 73° SE 01:42:16 10° NE
STARLINK-1397 1.5 01:38:20 10° SW 01:40:19 73° SE 01:42:17 10° NE
STARLINK-1401 1.5 01:38:20 10° SW 01:40:19 73° SE 01:42:17 10° NE
STARLINK-1419 1.6 01:38:19 10° SW 01:40:19 73° SE 01:42:19 10° NE
STARLINK-1408 1.6 01:38:18 10° SW 01:40:19 73° SE 01:42:18 10° NE
STARLINK-1396 1.5 01:38:20 10° SW 01:40:19 73° SE 01:42:16 10° NE
STARLINK-1404 1.5 01:38:21 10° SW 01:40:20 73° SE 01:42:17 10° NE
STARLINK-1453 1.5 01:38:21 10° SW 01:40:20 73° SE 01:42:18 10° NE
STARLINK-1402 1.5 01:38:22 10° SW 01:40:21 73° SE 01:42:19 10° NE
STARLINK-1417 1.5 01:38:22 10° SW 01:40:21 73° SE 01:42:19 10° NE
STARLINK-1420 1.6 01:38:21 10° SW 01:40:22 73° SE 01:42:22 10° NE
STARLINK-1413 1.5 01:38:23 10° SW 01:40:22 73° SE 01:42:20 10° NE
STARLINK-1406 1.5 01:38:24 10° SW 01:40:23 73° SE 01:42:20 10° NE
STARLINK-1422 1.6 01:38:23 10° SW 01:40:23 73° SE 01:42:23 10° NE
STARLINK-1460 1.6 01:38:23 10° SW 01:40:23 74° SE 01:42:23 10° NE
STARLINK-1440 1.5 01:38:25 10° SW 01:40:25 74° SE 01:42:22 10° NE
STARLINK-1458 1.6 01:38:24 10° SW 01:40:25 73° SE 01:42:24 10° NE
STARLINK-1445 1.5 01:38:26 10° SW 01:40:26 74° SE 01:42:23 10° NE
STARLINK-1443 1.5 01:38:27 10° SW 01:40:26 74° SE 01:42:24 10° NE
STARLINK-1454 1.5 01:38:27 10° SW 01:40:26 74° SE 01:42:24 10° NE
STARLINK-1457 1.5 01:38:28 10° SW 01:40:27 74° SE 01:42:25 10° NE
STARLINK-1456 1.5 01:38:28 10° SW 01:40:27 74° SE 01:42:26 10° NE
STARLINK-1451 1.5 01:38:29 10° SW 01:40:28 74° SE 01:42:25 10° NE
STARLINK-1437 1.6 01:38:27 10° SW 01:40:28 74° SE 01:42:27 10° NE
STARLINK-1446 1.6 01:38:27 10° SW 01:40:28 74° SE 01:42:28 10° NE
STARLINK-1442 1.5 01:38:30 10° SW 01:40:29 74° SE 01:42:27 10° NE
STARLINK-1447 1.6 01:38:30 10° SW 01:40:31 74° SE 01:42:31 10° NE
STARLINK-1423 1.6 01:38:30 10° SW 01:40:31 74° SE 01:42:31 10° NE
STARLINK-1455 1.6 01:38:30 10° SW 01:40:31 74° SE 01:42:31 10° NE
STARLINK-1405 1.5 01:38:32 10° SW 01:40:31 74° SE 01:42:29 10° NE
STARLINK-1421 1.5 01:38:32 10° SW 01:40:32 74° SE 01:42:29 10° NE
STARLINK-1441 1.6 01:38:31 10° SW 01:40:32 74° SE 01:42:32 10° NE
STARLINK-1407 1.5 01:38:33 10° SW 01:40:32 74° SE 01:42:30 10° NE
STARLINK-1400 1.5 01:38:33 10° SW 01:40:32 74° SE 01:42:30 10° NE
STARLINK-1410 1.5 01:38:33 10° SW 01:40:33 74° SE 01:42:30 10° NE
STARLINK-1439 1.5 01:38:34 10° SW 01:40:33 74° SE 01:42:31 10° NE
STARLINK-1448 1.6 01:38:32 10° SW 01:40:33 74° SE 01:42:34 10° NE
STARLINK-1449 1.6 01:38:32 10° SW 01:40:34 74° SE 01:42:34 10° NE
STARLINK-1409 1.5 01:38:34 10° SW 01:40:34 74° SE 01:42:31 10° NE
STARLINK-1418 1.5 01:38:36 10° SW 01:40:34 74° SE 01:42:33 10° NE
STARLINK-1351 1.5 01:38:35 10° SW 01:40:34 74° SE 01:42:32 10° NE
STARLINK-1370 1.5 01:38:35 10° SW 01:40:34 74° SE 01:42:32 10° NE
STARLINK-1434 1.5 01:38:36 10° SW 01:40:35 74° SE 01:42:33 10° NE
STARLINK-1403 1.5 01:38:37 10° SW 01:40:36 74° SE 01:42:34 10° NE
STARLINK-1433 1.5 01:38:38 10° SW 01:40:37 74° SE 01:42:35 10° NE
STARLINK-1411 1.5 01:38:39 10° SW 01:40:38 74° SE 01:42:35 10° NE
STARLINK-1438 1.5 01:38:39 10° SW 01:40:38 75° SE 01:42:36 10° NE
STARLINK-1412 1.6 01:38:40 10° SW 01:40:41 75° SE 01:42:41 10° NE
Iridium 51 4.0 01:38:02 10° S 01:41:48 77° E 01:45:21 10° N
STARLINK-1100 3.7 01:38:20 10° NW 01:42:28 74° NE 01:46:35 10° SE
Cosmos 2297 3.7 01:39:27 10° S 01:45:04 70° ESE 01:50:46 10° NNE
NOSS 2-2 (E) 3.3 01:41:40 10° SW 01:45:12 72° WNW 01:48:55 10° NNE
STARLINK-1083 3.6 01:43:17 10° NW 01:47:26 82° NE 01:51:21 11° SE
COSMOS 2406 4.2 01:42:01 10° NNW 01:47:31 48° WSW 01:52:59 10° S
Meteor 2-4 Rocket 3.8 01:42:50 10° S 01:48:10 80° W 01:53:33 10° N
Meteor 1-12 Rocket 4.5 01:43:41 10° N 01:49:14 53° E 01:54:52 10° SSE
STARLINK-29 3.0 01:47:03 10° SSW 01:50:12 54° SE 01:53:23 10° NE
Cosmos 2279 Rocket 4.4 01:45:19 10° N 01:51:16 46° E 01:57:10 10° SSE
STARLINK-1125 3.6 01:48:16 10° NW 01:52:25 89° SSW 01:56:09 13° SE
Cosmos 2082 Rocket 2.3 01:46:55 10° NNW 01:52:37 66° ENE 01:58:14 10° SSE
Cosmos 2369 Rocket 3.3 01:48:45 10° SSE 01:53:03 23° E 01:57:21 10° NE
Cosmos 1975 3.7 01:49:32 10° NNW 01:53:26 50° W 01:57:16 10° SSW
ISS -3.2 01:51:55 10° WNW 01:55:12 53° SW 01:58:06 13° SSE
Cosmos 332 Rocket 4.4 01:50:32 10° SSW 01:55:23 62° WNW 02:00:14 10° N
USA 186 2.8 01:54:20 10° SSW 01:56:48 37° W 01:59:27 10° NNW
STARLINK-1109 3.6 01:53:14 10° NW 01:57:23 80° SW 02:00:55 14° SE
STARLINK-1091 3.7 01:58:13 10° NW 02:02:20 72° SW 02:05:42 15° SE
SJ-6B 3.2 02:01:31 10° S 02:05:11 60° W 02:08:53 10° NNW
USA 267 4.0 01:59:00 10° SSE 02:05:13 46° SW 02:11:28 10° NW
STARLINK-1072 3.9 02:03:15 10° NW 02:07:21 63° SW 02:10:31 16° SSE
H-2A ROCKET BODY 3.8 02:03:33 10° SSW 02:07:35 26° SE 02:18:58 10° E
Sakura Rocket 4.3 02:02:46 10° WSW 02:07:57 45° S 02:13:42 15° ESE
Lacrosse 5 2.4 02:04:40 10° NW 02:09:35 52° SW 02:13:58 13° SSE
NOSS 2-2 (C) 4.3 02:07:30 10° SW 02:10:57 44° NW 02:14:29 10° NNE
STARLINK-1096 4.0 02:08:13 10° NW 02:12:16 56° SW 02:15:16 17° SSE
SL-08 RB Rocket 4.4 02:09:02 10° S 02:13:30 52° W 02:17:56 10° NNW
ATLAS 2AS CENTAUR R/B 3.5 02:08:54 10° S 02:15:53 37° ESE 02:23:00 10° NE
Aureole 2 Rocket 4.3 02:13:49 10° SW 02:16:33 28° WNW 02:19:11 10° N
STARLINK-1079 4.2 02:13:16 10° NW 02:17:16 50° SW 02:20:05 18° SSE
Meteor 1-23 Rocket 4.3 02:12:09 10° S 02:17:44 62° E 02:23:16 10° NNE
Cosmos 1066 Rocket 4.1 02:14:41 10° S 02:19:59 61° E 02:25:15 10° NNE
MetOp-A 4.3 02:16:34 10° S 02:21:54 73° WSW 02:27:16 10° NNW
STARLINK-1116 4.4 02:18:16 10° WNW 02:22:13 44° SW 02:24:51 19° SSE
STARLINK-52 3.4 02:22:26 10° SW 02:25:37 63° NW 02:28:47 10° NE
H-2A R/B 4.0 02:28:42 10° SSW 02:30:39 13° S 02:31:36 12° S
COSMOS 2455 4.1 02:30:26 19° ESE 02:30:52 19° ESE 02:34:59 10° ENE
Milstar 3 Cent rocket 3.8 02:25:37 10° SW 02:32:17 42° SSE 02:45:21 10° E
STARLINK-1102 4.4 02:30:34 10° NNW 02:34:31 42° NE 02:36:32 24° E
Chunghua 1 4.5 02:30:45 10° W 02:34:34 83° S 02:36:25 29° ESE
Spot 2 Rocket 4.1 02:35:31 25° SE 02:37:54 41° ENE 02:42:37 10° N
Cosmos 1741 Rocket 4.3 02:33:10 10° NNW 02:38:21 66° WSW 02:42:12 18° S
GPS 2-04 Rocket1 2.9 02:36:07 10° W 02:39:24 43° SSW 02:40:07 37° SSE
STARLINK-1111 4.2 02:35:31 10° NW 02:39:31 46° NE 02:41:19 28° E
Okean 1 Rocket 3.2 02:35:22 10° N 02:39:44 55° E 02:41:36 31° SE
SL-4 R/B 3.9 02:36:57 10° WSW 02:41:15 37° NW 02:45:44 10° NE
FALCON 9 DEB 3.1 02:38:05 10° SW 02:41:30 79° NW 02:44:55 10° NE
STARLINK-1073 4.1 02:40:27 10° NW 02:44:29 51° NE 02:46:05 32° E
SPOT 5 4.4 02:46:23 20° E 02:48:05 24° ENE 02:52:15 10° NNE
STARLINK-1121 3.9 02:45:23 10° NW 02:49:27 57° NE 02:50:51 36° ESE
IGS 5A 4.0 02:48:39 35° ESE 02:49:40 41° ENE 02:53:36 10° N
SL-27 R/B 4.2 02:48:10 10° NNE 02:50:47 20° ENE 02:50:47 20° ENE
Cosmos 2263 4.2 02:48:43 20° S 02:52:30 55° ESE 02:57:58 10° NNE
ATLAS CENTAUR R/B 1.7 02:52:16 38° SSE 02:53:17 45° ESE 02:57:23 10° NE
STARLINK-1106 3.8 02:50:21 10° NW 02:54:28 64° NE 02:55:39 42° ESE
STARLINK-1362 4.2 02:56:04 35° E 02:56:04 35° E 02:58:45 10° ENE
Okean 2 3.5 02:54:11 43° SE 02:55:04 52° E 02:59:06 10° NNE
Terra 3.5 02:55:01 17° E 02:55:51 18° ENE 02:59:00 10° NNE
Resurs 01 Rocket 2.3 02:54:43 21° S 02:57:27 52° W 03:01:48 10° NNW
USA 245 3.4 02:58:45 36° NNE 02:58:45 36° NNE 03:00:29 10° N
ASTRO E2 3.7 02:55:33 10° WSW 02:58:52 30° SSW 02:58:52 30° SSW
STARLINK-1373 4.2 03:00:24 37° E 03:00:24 37° E 03:03:08 10° NE
STARLINK-1112 3.6 02:55:19 10° NW 02:59:27 71° NE 03:00:26 49° ESE
Abrixas rocket 2.2 02:57:32 10° WNW 03:00:09 59° W 03:00:09 59° W
APEX 4.3 02:56:25 10° SSW 03:03:10 82° ESE 03:08:48 10° NNE
STARLINK-1390 3.9 03:04:34 44° E 03:04:34 44° E 03:07:33 10° NE
Cosmos 1242 Rocket 3.8 03:04:39 28° ENE 03:04:39 28° ENE 03:07:04 10° NNE
Cosmos 1302 Rocket 4.2 02:58:47 10° SSW 03:04:02 70° WNW 03:09:21 10° NNE
Cosmos 1943 Rocket 2.8 02:58:38 10° SW 03:04:02 55° WNW 03:09:32 10° NNE
STARLINK-1128 3.5 03:00:16 10° NW 03:04:25 79° NE 03:05:13 56° ESE
Cosmos 2026 Rocket 4.2 03:02:16 33° SSE 03:04:49 52° E 03:10:58 10° NNE
SPOT 1/Viking Rocket 3.7 03:03:35 39° SE 03:05:13 55° ENE 03:10:14 10° N
STARLINK-1365 3.4 03:07:35 64° SSE 03:07:48 65° SE 03:11:48 10° NE
STARLINK-1113 3.5 03:05:15 10° NW 03:09:24 88° NE 03:10:01 64° SE
STARLINK-1119 3.4 03:10:13 10° NW 03:14:22 83° SW 03:14:47 71° SSE
CENTAUR R/B 3.8 03:07:05 10° NNW 03:14:57 45° NE 03:19:26 27° ESE
Cosmos 1766 3.1 03:12:52 10° N 03:16:53 82° E 03:17:08 76° SE
STARLINK-1114 3.5 03:15:13 10° NW 03:19:21 75° SW 03:19:34 72° SSW
ATLAS 3B R/B 4.4 03:16:54 10° N 03:22:00 22° NE 03:25:46 14° E
Cosmos 1992 Rocket 3.9 03:21:20 53° SSE 03:22:12 62° ESE 03:27:21 10° NNE
STARLINK-1338 3.5 03:23:32 72° NE 03:23:32 72° NE 03:27:06 10° NE
STARLINK-1130 (DARKSAT) 3.6 03:20:12 10° NW 03:24:18 66° SW 03:24:21 66° SW
Cosmos 1656 Rocket 3.5 03:22:49 40° S 03:24:50 74° ESE 03:30:25 10° NNE
Meteor 1-21 4.1 03:25:54 50° SSE 03:27:15 69° E 03:32:50 10° NNE
STARLINK-1084 3.8 03:25:12 10° NW 03:29:08 58° WSW 03:29:08 58° WSW
STARLINK-1371 3.6 03:31:19 73° NW 03:31:19 73° NW 03:35:15 10° NE
Cosmos 292 Rocket 4.3 03:30:53 24° SW 03:33:36 56° WNW 03:38:22 10° N
STARLINK-1098 4.1 03:30:12 10° NW 03:33:54 51° WSW 03:33:54 51° WSW
STARLINK-1341 3.7 03:35:17 66° WNW 03:35:26 67° NW 03:39:21 10° NE
NOSS 3-2 (C) 4.3 03:27:57 10° NNW 03:35:44 65° ENE 03:39:06 39° ESE
Cosmos 2369 Rocket 3.4 03:31:24 10° SW 03:36:44 41° WNW 03:42:04 10° N
SL-8 R/B 3.6 03:32:10 10° WNW 03:36:57 72° SW 03:37:05 71° SSW
NOSS 3-4 (A) 3.7 03:32:57 10° SW 03:38:47 65° WNW 03:44:55 10° NNE
NOSS 3-4 (C) 3.6 03:33:02 10° SW 03:38:52 66° WNW 03:45:01 10° NNE
STARLINK-1123 4.4 03:35:13 10° WNW 03:38:41 44° WSW 03:38:41 44° WSW
STARLINK-1374 3.9 03:39:17 59° WNW 03:39:33 61° NW 03:43:27 10° NE
ATLAS 3B CENTAUR R/B 3.4 03:23:51 10° W 03:39:44 58° SSW 03:42:25 43° SE
ERS-1 Rocket 2.8 03:39:13 69° SSE 03:39:50 87° ENE 03:44:54 10° NNW
Cosmos 1655 Rocket 4.4 03:40:04 41° E 03:40:28 42° E 03:46:17 10° NNE
OAO 1 4.4 03:37:20 10° W 03:42:52 86° S 03:43:39 67° ESE
BREEZE-M DEB (TANK) 3.7 03:33:53 10° NW 03:43:26 58° NNE 03:44:44 44° E
STARLINK-1339 4.1 03:43:14 51° WNW 03:43:43 55° NW 03:47:36 10° NE
Cosmos 1975 Rocket 4.0 03:42:41 34° WSW 03:43:54 43° W 03:48:07 10° N
Cosmos 1025 Rocket 3.8 03:45:12 41° NE 03:45:12 41° NE 03:48:19 10° NNE
STARLINK-1377 4.3 03:47:11 44° WNW 03:47:53 50° NW 03:51:44 10° NE
STARLINK-1353 4.5 03:51:07 38° W 03:52:04 46° NW 03:55:52 10° NE
Cosmos 1470 3.9 03:51:41 10° N 03:54:15 39° NNE 03:54:15 39° NNE
Cosmos 1867 4.0 03:51:59 10° NNW 03:57:17 49° ENE 03:57:37 48° ENE
Cosmos 968 Rocket 3.3 03:52:47 10° NNW 03:57:51 78° ENE 03:57:51 78° ENE
ATLAS 5 CENTAUR R/B 2.7 03:50:49 10° SW 04:00:18 65° WNW 04:03:24 10° NNE
RESURS DK-1 4.3 04:08:27 23° NE 04:08:27 23° NE 04:10:06 10° NNE
ATLAS 2AS CENTAUR R/B 3.9 03:59:05 10° SW 04:06:41 48° NW 04:14:22 10° NNE
Cosmos 1271 Rocket 4.3 04:16:44 33° NW 04:16:44 33° NW 04:19:37 10° N
COSMOS 2455 3.4 04:13:27 30° SW 04:16:16 55° WNW 04:22:11 10° NNE
Cosmos 1953 4.1 04:12:40 10° N 04:14:45 27° NNE 04:14:45 27° NNE
Cosmos 1455 Rocket 4.3 04:14:43 10° NNW 04:18:11 35° WNW 04:18:11 35° WNW
Meteor 2-19 Rocket 4.4 04:22:19 72° E 04:22:19 72° E 04:28:19 10° NNE
Cosmos 1417 Rocket 4.4 04:16:43 10° N 04:23:06 86° W 04:23:35 77° SSW
Thor Agena Rocket 4.0 04:18:57 10° NNE 04:23:11 54° NE 04:23:11 54° NE
SPOT 5 4.0 04:25:37 38° WSW 04:25:49 38° W 04:30:47 10° NNW
ATLAS CENTAUR R/B 4.2 04:29:29 10° W 04:32:21 17° NW 04:35:06 10° N
Terra 2.9 04:33:54 38° WNW 04:33:54 38° WNW 04:37:43 10° NNW
Meteor 2-10 4.3 04:31:26 10° N 04:35:35 61° NNW 04:35:35 61° NNW
Cosmos 1503 Rocket 4.5 04:33:36 10° NNW 04:38:11 56° WNW 04:38:11 56° WNW
Meteor 2-15 4.5 04:43:25 10° N 04:49:06 71° NE 04:49:06 71° NE
SeaSat 1 3.4 04:46:53 10° NNE 04:50:08 42° NNE 04:50:08 42° NNE
Cosmos 2297 Rocket 4.1 04:48:48 10° NNE 04:52:36 18° ENE 04:53:23 18° ENE
S3M 4.2 04:49:05 10° NNW 04:55:10 58° W 04:55:11 58° W
Cosmos 2315 Rocket 4.1 04:52:21 10° N 04:58:03 66° NE 04:58:03 66° NE
CENTAUR R/B 3.7 04:57:53 10° NW 05:05:48 45° WSW 05:06:37 44° SW
Milstar 3 Cent rocket 4.4 05:01:24 10° WSW 05:12:03 69° S 05:36:03 10° E
ATLAS 3B R/B 2.7 05:06:26 10° NNW 05:13:00 75° W 05:13:00 75° W
Cosmos 1697 Rocket 4.5 05:15:47 21° ENE 05:15:47 21° ENE 05:18:14 10° NE
Exosat Rocket 4.4 05:10:36 10° NNW 05:17:55 60° W 05:17:55 60° W
ALOS 2 4.3 05:23:18 31° N 05:23:18 31° N 05:25:38 10° N
Cosmos 2227 Rocket 3.5 05:25:32 10° N 05:30:27 31° ENE 05:30:27 31° ENE
Cosmos 1745 Rocket 4.3 05:50:15 57° NE 05:50:15 57° NE 05:55:21 10° NNE
FALCON 9 R/B 3.8 05:53:12 36° E 05:53:12 36° E 06:00:51 10° E
Lacrosse 4 Rocket 3.9 05:49:56 10° N 05:52:03 18° NE 05:52:03 18° NE
CZ-4C R/B 2.9 06:00:11 45° N 06:00:11 45° N 06:04:18 10° NNE
Cosmos 1980 Rocket 3.3 06:12:34 36° ENE 06:12:34 36° ENE 06:16:20 10° NE
SJ 16-02 3.2 06:10:39 10° N 06:12:52 29° N 06:12:52 29° N
Cosmos 2369 4.2 06:21:00 56° N 06:21:00 56° N 06:25:28 10° NNE
Cosmos 2297 Rocket 3.2 06:31:29 10° NNW 06:35:10 39° NW 06:35:10 39° NW
Cosmos 1709 Rocket 4.0 06:38:36 74° N 06:38:36 74° N 06:44:10 10° N
USA 215 3.8 06:35:30 27° ESE 06:38:58 55° NE 06:45:20 10° NW
SL-16 R/B 4.2 06:39:30 20° ESE 06:42:08 26° ENE 06:47:06 10° NNE
Cosmos 1937 Rocket 4.2 06:41:37 10° NNW 06:45:39 53° N 06:45:39 53° N
SL-19 R/B 4.5 06:42:27 10° NNE 06:47:38 70° NE 06:47:38 70° NE
Cosmos 2322 Rocket 4.0 06:49:46 21° E 06:49:46 21° E 06:53:28 10° NE
Cosmos 2082 4.0 06:45:16 10° NNW 06:49:50 60° NNW 06:49:50 60° NNW
Cosmos 2278 4.2 06:57:13 53° NW 06:57:13 53° NW 07:02:10 10° NNE
Cosmos 1697 Rocket 3.8 06:57:30 35° WNW 06:57:30 35° WNW 07:02:27 10° N
Cosmos 2285 Rocket 3.9 06:57:23 10° NNW 07:03:42 86° NE 07:03:42 86° NE
Resurs 1-4 Rocket 2.6 07:08:09 10° NNE 07:13:02 53° E 07:13:02 53° E
Cosmos 2227 Rocket 3.8 07:09:36 10° NW 07:12:15 23° WNW 07:12:15 23° WNW
IRAS Rocket 4.2 07:15:35 76° NNW 07:15:35 76° NNW 07:20:41 10° NNW
SL-16 R/B 2.5 07:24:07 54° ESE 07:24:07 54° ESE 07:29:37 10° NNE
Cosmos 2074 Rocket 3.9 07:24:26 74° SSE 07:24:57 81° E 07:31:15 10° N
Lacrosse 4 Rocket 4.0 07:27:58 10° NW 07:28:20 12° NW 07:28:20 12° NW
Cosmos 2298 Rocket 4.0 07:29:47 10° NNW 07:35:06 77° ENE 07:35:12 76° E
CZ-2D R/B 1.9 07:36:39 10° N 07:41:49 82° WNW 07:41:49 82° WNW
BREEZE-M DEB (TANK) 3.0 07:41:43 72° WNW 07:41:55 73° NNW 07:52:08 10° NE
Cosmos 2360 Rocket 3.2 07:46:14 31° SE 07:47:24 34° ESE 07:52:25 10° NE
Cosmos 2184 Rocket 3.9 07:48:41 62° WSW 07:49:18 66° W 07:55:25 10° N
Cosmos 2327 Rocket 4.4 07:50:48 60° S 07:52:07 90° WNW 07:58:31 10° N
Cosmos 1980 Rocket 3.8 07:54:20 21° WNW 07:55:09 22° WNW 07:59:28 10° N
Cosmos 1076 Rocket 4.1 07:55:11 51° E 07:55:15 51° E 07:59:30 10° NNE
Cosmos 1892 3.6 07:56:58 46° ENE 07:56:58 46° ENE 08:00:06 10° NNE
Cosmos 1610 Rocket 4.3 07:56:59 60° SSW 07:58:13 86° W 08:04:25 10° N
CRYOSAT 2 4.2 07:54:57 10° N 07:59:52 90° NW 08:00:05 82° S
STARLINK-24 4.3 08:01:58 47° E 08:01:58 47° E 08:05:05 10° NE
CBERS-1 4.0 07:56:40 10° NNE 08:01:48 74° ESE 08:02:33 62° SSE
Cosmos 1869 3.7 07:58:56 10° N 08:02:21 58° NE 08:02:21 58° NE
Timation 1 Rocket 4.2 07:59:16 10° NNW 08:05:09 64° WSW 08:05:50 59° SW
Cosmos 2219 Rocket 4.5 08:02:50 10° SE 08:05:53 15° E 08:08:56 10° ENE
STARLINK-1025 4.2 08:11:08 47° ESE 08:11:08 47° ESE 08:14:44 10° NE
STARLINK-61 4.5 08:12:43 38° NW 08:12:43 38° NW 08:16:20 10° NNE
STARLINK-25 4.1 08:14:07 45° ENE 08:14:07 45° ENE 08:16:38 10° NE
STARLINK-1017 4.0 08:15:54 54° ESE 08:15:54 54° ESE 08:19:44 10° NE
Cosmos 2263 Rocket 2.0 08:12:35 10° NNW 08:18:10 76° WSW 08:19:55 45° S
IRIDIUM 106 4.2 08:18:51 53° S 08:20:07 87° W 08:25:22 10° N
Cosmos 962 Rocket 4.4 08:18:03 40° S 08:20:27 83° E 08:26:39 10° N
STARLINK-1023 3.7 08:20:41 62° SE 08:20:41 62° SE 08:24:43 10° NE
USA 215 3.8 08:22:46 36° WSW 08:22:46 36° WSW 08:28:00 10° WNW
Cosmos 2154 Rocket 4.2 08:21:54 44° SW 08:23:29 55° W 08:29:35 10° N
ADEOS II 2.0 08:18:30 10° NNE 08:23:47 88° WNW 08:25:16 49° SSW
CZ-4B R/B 4.1 08:19:19 10° N 08:24:18 44° WNW 08:25:12 40° W
SL-16 R/B 2.8 08:24:36 41° WSW 08:25:25 43° W 08:31:16 10° NNW
STARLINK-1007 3.5 08:25:30 69° SSE 08:25:38 70° SE 08:29:45 10° NE
STARLINK-81 3.3 08:26:24 73° NNE 08:26:24 73° NNE 08:29:45 10° NE
NPP 4.4 08:22:06 10° N 08:26:57 35° WNW 08:27:54 33° W
STARLINK-54 3.4 08:28:09 66° NNW 08:28:09 66° NNW 08:31:36 10° NE
IDEFIX/ARIANE 42P 4.1 08:24:04 10° NE 08:28:38 30° E 08:32:34 13° SSE
STARLINK-77 3.3 08:29:34 73° NNW 08:29:34 73° NNW 08:33:03 10° NE
STARLINK-1048 3.4 08:30:16 72° S 08:30:35 78° SE 08:34:43 10° NE
Cosmos 2221 2.8 08:27:09 10° NNW 08:31:16 48° W 08:31:16 48° W
IRS-1D 3.7 08:26:24 10° N 08:31:31 56° WNW 08:32:45 44° WSW
Cosmos 1408 2.4 08:31:51 85° S 08:31:58 90° NE 08:35:39 10° N
Cosmos 2322 Rocket 2.7 08:31:35 37° WSW 08:33:03 44° WNW 08:38:25 10° N
Cosmos 1825 2.6 08:32:28 45° SE 08:33:14 56° E 08:36:55 10° NNE
STARLINK-79 3.3 08:34:16 65° NW 08:34:19 65° NW 08:37:55 10° NE
In-Cosmos 22 Rocket 4.4 08:33:14 42° SW 08:34:41 54° W 08:40:05 10° N
Cosmos 1842 Rocket 4.4 08:31:01 10° NNW 08:34:41 34° W 08:34:41 34° W
STARLINK-1049 3.4 08:35:03 68° SW 08:35:34 87° SE 08:39:43 10° NE
STARLINK-78 3.4 08:35:49 61° NW 08:35:56 62° NW 08:39:30 10° NE
IRS-1C 4.0 08:30:54 10° NNE 08:36:15 83° WNW 08:38:18 39° SSW
STARLINK-57 3.5 08:37:28 54° WNW 08:37:41 55° NW 08:41:14 10° NE
STARLINK-49 3.5 08:38:57 55° WNW 08:39:11 57° NW 08:42:44 10° NE
ARIANE 5 R/B 2.5 08:34:26 10° NNE 08:39:28 77° ESE 08:41:40 34° S
STARLINK-1051 3.5 08:39:48 60° SW 08:40:31 84° NW 08:44:40 10° NE
STARLINK-27 3.5 08:40:31 52° WNW 08:40:49 54° NW 08:44:21 10° NE
STARLINK-74 3.6 08:42:04 50° WNW 08:42:25 52° NW 08:45:58 10° NE
STARLINK-39 3.7 08:43:32 47° WNW 08:43:57 50° NW 08:47:27 10° NE
STARLINK-31 3.7 08:45:04 44° WNW 08:45:33 47° NW 08:49:01 10° NE
STARLINK-69 4.0 08:46:44 38° WNW 08:47:19 41° NW 08:50:44 10° NNE
STARLINK-21 3.9 08:48:11 39° WNW 08:48:48 43° NW 08:52:14 10° NNE
Cosmos 2058 3.9 08:48:46 29° W 08:48:57 30° WNW 08:52:41 10° NNW
Cosmos 1315 Rocket 4.0 08:46:21 10° NNW 08:49:04 26° WNW 08:49:04 26° WNW
STARLINK-1028 3.7 08:49:23 45° WSW 08:50:29 68° NW 08:54:36 10° NE
STARLINK-45 4.2 08:49:56 33° WNW 08:50:39 37° NW 08:54:01 10° NNE
STARLINK-70 4.1 08:51:10 33° WNW 08:51:55 38° NW 08:55:16 10° NNE
Resurs 1-4 Rocket 3.9 08:49:24 10° NNW 08:52:42 17° WNW 08:54:06 15° W
STARLINK-1010 3.9 08:52:24 39° WSW 08:53:45 60° NW 08:57:57 10° NE
STARLINK-76 4.1 08:53:00 33° WNW 08:53:50 39° NW 08:57:13 10° NNE
Cosmos 2366 rocket 4.0 08:50:31 20° S 08:55:02 82° E 09:01:21 10° N
Nadezhda 3 Rocket 4.5 08:49:14 10° NNW 08:55:06 41° W 08:57:47 28° SW
STARLINK-23 4.2 08:54:26 31° WNW 08:55:18 37° NW 08:58:39 10° NNE
STARLINK-1021 3.8 08:54:13 39° WSW 08:55:31 61° NW 08:59:36 10° NE
STARLINK-32 4.3 08:55:55 30° WNW 08:56:50 36° NW 09:00:10 10° NNE
STARLINK-40 4.3 08:57:35 28° WNW 08:58:36 35° NW 09:01:55 10° NNE
CZ-3A R/B 4.4 08:55:34 10° SSE 08:58:37 13° SE 09:03:34 10° ESE
STARLINK-44 4.4 08:59:01 27° WNW 09:00:05 33° NW 09:03:22 10° NNE
STARLINK-1019 4.0 08:58:57 34° WSW 09:00:27 54° NW 09:04:32 10° NE
BREEZE-M TANK 3.9 09:00:19 20° S 09:01:26 23° SE 09:03:58 10° E
GEOS 3 Rocket 3.6 08:56:42 10° SSE 09:01:45 59° WSW 09:06:56 10° NW
STARLINK-36 4.5 09:02:01 25° WNW 09:03:12 31° NW 09:06:25 10° NNE
STARLINK-1012 4.1 09:03:44 29° W 09:05:27 49° NW 09:09:29 10° NE
COBE Rocket 3.9 09:02:52 15° S 09:07:01 73° W 09:12:10 10° NNW
SL-16 R/B 3.9 09:05:59 15° W 09:08:31 19° WNW 09:12:29 10° NNW
Spot 4 Rocket 4.0 09:04:25 10° N 09:09:33 76° WNW 09:12:59 21° SSW
COSMOS 2428 3.2 09:06:24 15° S 09:11:03 56° ESE 09:16:35 10° NNE
Cosmos 1844 Rocket 3.2 09:07:31 10° NNW 09:13:03 61° ENE 09:18:33 10° SSE
Cosmos 1818 4.4 09:10:05 14° S 09:14:23 46° ESE 09:19:34 10° NE
STARLINK-1026 4.5 09:13:18 23° W 09:15:26 40° NW 09:19:21 10° NNE
Cosmos 1408 Rocket 3.8 09:11:56 14° S 09:15:37 66° E 09:19:53 10° NNE
USA 229 DEB 4.1 09:08:39 10° NW 09:15:41 47° WSW 09:22:56 10° S
USA 229 4.1 09:08:45 10° NW 09:15:47 47° WSW 09:23:04 10° S
NOSS 3-1 (C) 4.5 09:09:38 10° NW 09:17:11 44° WSW 09:25:26 10° S
Meteor 1-28 Rocket 3.2 09:16:04 20° S 09:18:28 57° W 09:22:09 10° NNW
Cosmos 1538 Rocket 4.1 09:15:42 22° SSW 09:19:08 64° WNW 09:24:29 10° N
STARLINK-1052 4.5 09:20:10 19° SSW 09:22:44 41° SE 09:26:39 10° ENE
STARLINK-60 2.8 09:20:23 10° NW 09:23:33 64° SW 09:26:42 10° SE
CZ-2D R/B 3.9 09:20:13 10° N 09:24:21 47° WNW 09:27:02 20° SW
NOSS 3-1 (A) 4.2 09:17:11 10° NW 09:25:04 60° WSW 09:33:45 10° SSE
SL-4 R/B 2.2 09:20:25 10° NW 09:25:09 76° SW 09:29:36 10° SE
Cosmos 1727 Rocket 4.2 09:19:30 10° N 09:25:42 76° E 09:31:51 10° S
SL-08 R/B 3.9 09:25:19 19° SSW 09:28:02 34° W 09:32:14 10° NNW
Cosmos 2360 Rocket 3.4 09:28:00 16° WSW 09:31:21 28° WNW 09:36:10 10° N
STARLINK-1444 2.0 09:29:37 10° NW 09:31:57 67° SW 09:34:24 10° SE
ERS-2 2.4 09:29:06 14° S 09:31:57 44° W 09:35:29 10° NNW
H-2A R/B 2.1 09:27:39 10° S 09:32:00 67° WSW 09:36:28 10° NNW
STARLINK-1452 2.0 09:30:15 10° NW 09:32:34 65° SW 09:35:01 10° SE
STARLINK-1033 4.1 09:29:45 17° SSW 09:32:40 52° SE 09:36:42 10° NE
Cosmos 1766 Rocket 4.1 09:30:07 19° SW 09:32:47 40° W 09:36:53 10° N
Cosmos 1606 2.6 09:29:11 10° N 09:32:58 80° W 09:36:45 10° S
Okean 3 Rocket 4.4 09:30:43 19° SW 09:33:20 35° WNW 09:37:31 10° NNW
STARLINK-1450 2.0 09:31:12 10° NW 09:33:27 62° SW 09:35:51 10° SE
STARLINK-1392 2.0 09:31:23 10° NW 09:33:38 62° SW 09:36:02 10° SE
STARLINK-1415 2.0 09:31:23 10° NW 09:33:39 61° SW 09:36:03 10° SE
STARLINK-1399 2.0 09:31:24 10° NW 09:33:39 61° SW 09:36:03 10° SE
STARLINK-1394 2.0 09:31:24 10° NW 09:33:40 61° SW 09:36:04 10° SE
STARLINK-1395 2.0 09:31:25 10° NW 09:33:41 61° SW 09:36:04 10° SE
STARLINK-1393 2.0 09:31:25 10° NW 09:33:41 61° SW 09:36:05 10° SE
STARLINK-1401 2.0 09:31:25 10° NW 09:33:41 61° SW 09:36:05 10° SE
STARLINK-1396 2.0 09:31:26 10° NW 09:33:42 61° SW 09:36:05 10° SE
STARLINK-1397 2.0 09:31:26 10° NW 09:33:42 61° SW 09:36:05 10° SE
STARLINK-1453 2.0 09:31:26 10° NW 09:33:42 61° SW 09:36:06 10° SE
STARLINK-1404 2.0 09:31:27 10° NW 09:33:43 61° SW 09:36:07 10° SE
STARLINK-1417 2.0 09:31:29 10° NW 09:33:44 61° SW 09:36:08 10° SE
STARLINK-1402 2.0 09:31:29 10° NW 09:33:44 61° SW 09:36:08 10° SE
STARLINK-1413 2.0 09:31:30 10° NW 09:33:45 61° SW 09:36:09 10° SE
STARLINK-1406 2.0 09:31:30 10° NW 09:33:46 61° SW 09:36:10 10° SE
STARLINK-1440 2.0 09:31:32 10° NW 09:33:47 61° SW 09:36:11 10° SE
STARLINK-1445 2.0 09:31:33 10° NW 09:33:49 61° SW 09:36:12 10° SE
STARLINK-1414 2.0 09:31:31 10° NW 09:33:49 62° SW 09:36:14 10° SE
STARLINK-1443 2.0 09:31:34 10° NW 09:33:49 61° SW 09:36:13 10° SE
STARLINK-1454 2.0 09:31:34 10° NW 09:33:50 61° SW 09:36:14 10° SE
STARLINK-1416 2.0 09:31:32 10° NW 09:33:50 62° SW 09:36:16 10° SE
STARLINK-1457 2.0 09:31:35 10° NW 09:33:51 61° SW 09:36:14 10° SE
STARLINK-1456 2.0 09:31:35 10° NW 09:33:51 61° SW 09:36:15 10° SE
STARLINK-1408 2.0 09:31:33 10° NW 09:33:51 62° SW 09:36:17 10° SE
STARLINK-1451 2.0 09:31:36 10° NW 09:33:51 61° SW 09:36:15 10° SE
STARLINK-1442 2.0 09:31:37 10° NW 09:33:52 61° SW 09:36:16 10° SE
STARLINK-1436 (VISORSAT) 2.1 09:31:36 10° NW 09:33:54 61° SW 09:36:20 10° SE
STARLINK-1419 2.1 09:31:37 10° NW 09:33:55 62° SW 09:36:21 10° SE
STARLINK-1421 2.0 09:31:40 10° NW 09:33:56 61° SW 09:36:20 10° SE
STARLINK-1405 2.0 09:31:40 10° NW 09:33:56 61° SW 09:36:19 10° SE
STARLINK-1398 2.1 09:31:38 10° NW 09:33:56 62° SW 09:36:22 10° SE
STARLINK-1410 2.0 09:31:41 10° NW 09:33:57 61° SW 09:36:20 10° SE
STARLINK-1400 2.0 09:31:41 10° NW 09:33:57 61° SW 09:36:21 10° SE
STARLINK-1407 2.0 09:31:42 10° NW 09:33:57 61° SW 09:36:21 10° SE
STARLINK-1439 2.0 09:31:42 10° NW 09:33:58 61° SW 09:36:22 10° SE
STARLINK-1409 2.0 09:31:43 10° NW 09:33:58 61° SW 09:36:22 10° SE
STARLINK-1418 2.0 09:31:44 10° NW 09:34:00 61° SW 09:36:24 10° SE
STARLINK-1351 2.0 09:31:44 10° NW 09:34:00 61° SW 09:36:24 10° SE
STARLINK-1370 2.0 09:31:44 10° NW 09:34:00 61° SW 09:36:24 10° SE
STARLINK-1434 2.0 09:31:45 10° NW 09:34:00 61° SW 09:36:24 10° SE
STARLINK-1422 2.1 09:31:42 10° NW 09:34:00 61° SW 09:36:26 10° SE
STARLINK-1420 2.1 09:31:42 10° NW 09:34:00 61° SW 09:36:26 10° SE
STARLINK-1403 2.0 09:31:46 10° NW 09:34:01 60° SW 09:36:25 10° SE
STARLINK-1460 2.1 09:31:43 10° NW 09:34:02 61° SW 09:36:28 10° SE
STARLINK-1433 2.0 09:31:46 10° NW 09:34:02 60° SW 09:36:26 10° SE
STARLINK-1411 2.0 09:31:48 10° NW 09:34:04 60° SW 09:36:27 10° SE
STARLINK-1438 2.0 09:31:48 10° NW 09:34:04 60° SW 09:36:28 10° SE
STARLINK-1458 2.1 09:31:47 10° NW 09:34:05 61° SW 09:36:32 10° SE
STARLINK-1423 2.1 09:31:50 10° NW 09:34:09 61° SW 09:36:35 10° SE
STARLINK-1446 2.1 09:31:51 10° NW 09:34:10 61° SW 09:36:36 10° SE
STARLINK-1437 2.1 09:31:53 10° NW 09:34:11 61° SW 09:36:37 10° SE
STARLINK-1447 2.1 09:31:55 10° NW 09:34:13 61° SW 09:36:40 10° SE
STARLINK-1455 2.1 09:31:55 10° NW 09:34:14 61° SW 09:36:40 10° SE
STARLINK-1441 2.1 09:31:56 10° NW 09:34:15 61° SW 09:36:41 10° SE
STARLINK-1448 2.1 09:31:59 10° NW 09:34:17 61° SW 09:36:45 10° SE
STARLINK-1449 2.1 09:32:01 10° NW 09:34:19 61° SW 09:36:46 10° SE
STARLINK-1412 2.1 09:32:09 10° NW 09:34:28 60° SW 09:36:55 10° SE
Cosmos 1151 Rocket 3.0 09:30:52 10° N 09:35:16 85° W 09:39:38 10° S
deb Chang Zheng 4 4.0 09:31:55 10° NNE 09:36:09 61° ESE 09:40:19 10° S
Cosmos 2151 4.3 09:34:37 17° WSW 09:36:34 23° WNW 09:40:03 10° NNW
CZ-2C R/B 3.1 09:33:55 10° N 09:37:35 49° WNW 09:40:31 15° SSW
STARLINK-1031 3.9 09:34:32 17° SSW 09:37:37 59° SE 09:41:42 10° NE
Cosmos 2333 Rocket 2.3 09:37:21 14° SSW 09:42:12 64° WNW 09:47:50 10° NNE
STARLINK-1024 3.8 09:39:18 15° SSW 09:42:35 67° SE 09:46:42 10° NE
Cosmos 1515 Rocket 4.0 09:39:37 10° N 09:43:57 65° E 09:48:14 10° SSE
STARLINK-1035 3.7 09:44:06 14° SW 09:47:33 75° SE 09:51:42 10° NE
Cosmos 2322 4.4 09:43:59 14° SW 09:48:29 38° WNW 09:53:49 10° N
Lacrosse 5 rocket 1.2 09:45:32 14° SW 09:48:58 77° NW 09:52:51 10° NE
Cosmos 2219 Rocket 2.3 09:44:09 12° SW 09:49:13 59° WNW 09:54:45 10° NNE
Cosmos 2112 Rocket 4.4 09:47:10 10° S 09:52:21 67° ESE 09:57:37 10° NNE
STARLINK-1032 3.6 09:48:52 13° SW 09:52:31 84° SE 09:56:40 10° NE
BREEZE-M DEB (TANK) 3.0 09:47:52 12° WSW 09:52:56 67° NNW 09:55:48 10° NE
Meteor 1-26 Rocket 4.5 09:47:17 10° N 09:53:13 86° E 09:59:13 10° S
STARLINK-29 2.8 09:52:43 10° NW 09:55:53 70° SW 09:59:01 10° SE
STARLINK-1037 3.6 09:52:08 12° SW 09:55:54 89° NNW 10:00:02 10° NE
SAR-Lupe-1 4.2 09:53:24 10° SSE 09:56:56 76° ENE 10:00:29 10° N
STARLINK-1011 3.6 09:53:39 12° SW 09:57:28 87° NW 10:01:38 10° NE
Cosmos 2344 3.6 09:50:26 10° SSW 09:58:11 85° WNW 10:05:53 10° NNE
Cosmos 1633 2.5 09:55:13 10° S 09:58:47 74° W 10:02:23 10° N
BREEZE-M DEB (TANK) 4.5 09:56:37 10° NNW 09:59:16 30° NE 10:04:44 10° ESE
Shenzhou-11 Module 4.3 09:58:38 10° NW 10:00:25 18° NNE 10:02:13 10° ENE
ATLAS 5 CENTAUR R/B 1.4 09:57:52 10° SSW 10:01:53 88° ESE 10:06:15 10° NNE
CZ-2C R/B 2.7 09:56:54 10° NNE 10:02:08 83° ESE 10:07:16 10° S
STARLINK-1036 3.6 09:58:26 11° SW 10:02:28 79° NW 10:06:37 10° NE
USA 32 4.0 09:59:08 10° S 10:04:20 75° W 10:09:35 10° N
Cosmos 1743 Rocket 3.6 10:01:07 10° SSW 10:05:28 64° W 10:09:50 10° N
STARLINK-1044 3.7 10:03:20 10° SW 10:07:27 71° NW 10:11:35 10° NE
IDEFIX/ARIANE 42P 3.7 10:03:39 10° NNW 10:08:05 28° WNW 10:12:30 10° SW
CZ-4B R/B 1.2 10:05:55 10° SSE 10:08:58 85° ENE 10:12:05 10° N
Cosmos 1346 Rocket 2.8 10:07:26 10° SSW 10:11:26 76° W 10:15:25 10° N
STARLINK-1047 3.8 10:08:18 10° SW 10:12:24 63° NW 10:16:31 10° NE
Meteor 2-3 Rocket 4.3 10:07:42 10° SW 10:12:55 39° WNW 10:18:07 10° N
Cosmos 1844 4.0 10:08:51 10° NNW 10:14:24 48° WSW 10:19:54 10° S
